This demonstration page uses our WeatherBlox Daily Observations layout. Learn more.

Left ArrowRight Arrow

Hourly Observations for November 14, 2020

Temp ( °F °C ) Dew Point ( °F °C ) Humidity (%) Winds ( mph kmh ) Pressure ( in mb ) Visibility ( mi km ) Precip ( " mm )
12:15 am 00:15 Clear 25 -4 25 -4 100 100 N N/A 30.25 1024 10 16 N/A
12:35 am 00:35 Clear 25 -4 25 -4 100 100 N N/A 30.25 1024 10 16 N/A
12:55 am 00:55 Clear 25 -4 25 -4 100 100 N N/A 30.25 1024 10 16 N/A
1:15 am 01:15 Clear 21 -6 21 -6 100 100 N N/A 30.27 1025 10 16 N/A
1:35 am 01:35 Clear 23 -5 23 -5 100 100 N N/A 30.26 1025 10 16 N/A
1:55 am 01:55 Clear 21 -6 21 -6 100 100 N N/A 30.27 1025 10 16 N/A
2:15 am 02:15 Clear 23 -5 23 -5 100 100 N N/A 30.26 1025 7 11 N/A
2:35 am 02:35 Clear 23 -5 23 -5 100 100 N N/A 30.26 1025 7 11 N/A
2:55 am 02:55 Clear 23 -5 23 -5 100 100 N N/A 30.26 1025 7 11 N/A
3:15 am 03:15 Clear 23 -5 23 -5 100 100 N N/A 30.26 1025 7 11 N/A
3:35 am 03:35 Clear 23 -5 23 -5 100 100 N N/A 30.25 1025 7 11 N/A
3:55 am 03:55 Clear 23 -5 23 -5 100 100 N N/A 30.25 1025 7 11 N/A
4:15 am 04:15 Clear 19 -7 19 -7 100 100 N N/A 30.24 1024 7 11 N/A
4:35 am 04:35 Clear 21 -6 21 -6 100 100 SE 3 6 30.24 1024 7 11 N/A
4:55 am 04:55 Clear 23 -5 23 -5 100 100 ESE 3 6 30.23 1024 7 11 N/A
5:15 am 05:15 Clear 25 -4 25 -4 100 100 ESE 5 7 30.23 1024 10 16 N/A
5:35 am 05:35 Clear 25 -4 25 -4 100 100 ESE 6 9 30.23 1024 10 16 N/A
5:55 am 05:55 Clear 27 -3 27 -3 100 100 SE 6 9 30.23 1024 10 16 N/A
6:15 am 06:15 Clear 27 -3 27 -3 100 100 ESE 6 9 30.23 1024 10 16 N/A
6:35 am 06:35 Clear 28 -2 28 -2 100 100 SE 7 11 30.22 1023 10 16 N/A
6:55 am 06:55 Clear 28 -2 28 -2 100 100 SE 6 9 30.22 1023 10 16 N/A
7:15 am 07:15 Clear 28 -2 28 -2 100 100 ESE 8 13 30.22 1023 10 16 N/A
7:35 am 07:35 Sunny 30 -1 30 -1 100 100 SE 7 11 30.23 1024 7 11 N/A
7:55 am 07:55 Sunny 30 -1 30 -1 100 100 SE 9 15 30.22 1023 7 11 N/A
8:15 am 08:15 Sunny 30 -1 30 -1 100 100 SE 10 17 30.22 1023 7 11 N/A
8:35 am 08:35 Sunny 32 undefined 32 undefined 100 100 SE 9 15 30.21 1023 7 11 N/A
8:55 am 08:55 Sunny 32 undefined 32 undefined 100 100 SE 9 15 30.21 1023 10 16 N/A
9:15 am 09:15 Sunny 34 1 34 1 100 100 SE 8 13 30.20 1023 10 16 N/A
9:35 am 09:35 Sunny 36 2 36 2 100 100 SE 10 17 30.18 1022 10 16 N/A
9:55 am 09:55 Sunny 37 3 37 3 100 100 SE 12 19 30.16 1021 10 16 N/A
10:15 am 10:15 Sunny 37 3 37 3 100 100 SE 10 17 30.16 1021 10 16 N/A
10:35 am 10:35 Sunny 39 4 37 3 93 93 SE 13 20 30.15 1021 10 16 N/A
10:55 am 10:55 Sunny 41 5 37 3 87 87 SE 12 19 30.15 1021 10 16 N/A
11:15 am 11:15 Sunny 43 6 37 3 81 81 SSE 7 11 30.15 1021 10 16 N/A
11:35 am 11:35 Partly Cloudy 43 6 37 3 81 81 SSE 10 17 30.14 1021 10 16 N/A
11:55 am 11:55 Mostly Cloudy 43 6 39 4 87 87 SSE 8 13 30.13 1020 10 16 N/A
12:15 pm 12:15 Cloudy 45 7 39 4 81 81 SE 12 19 30.12 1020 10 16 N/A
12:35 pm 12:35 Cloudy 45 7 39 4 81 81 SSE 7 11 30.11 1020 10 16 N/A
12:55 pm 12:55 Cloudy 45 7 39 4 81 81 SSE 8 13 30.11 1020 10 16 N/A
1:15 pm 13:15 Cloudy 46 8 39 4 76 76 SSE 12 19 30.10 1019 10 16 N/A
1:35 pm 13:35 Cloudy 45 7 39 4 81 81 S 12 19 30.08 1019 10 16 N/A
1:55 pm 13:55 Cloudy 45 7 43 6 93 93 SSE 9 15 30.07 1018 7 11 N/A
2:15 pm 14:15 Cloudy 45 7 45 7 100 100 SSE 8 13 30.05 1018 10 16 N/A
2:35 pm 14:35 Cloudy 46 8 43 6 87 87 SSE 10 17 30.04 1017 10 16 N/A
2:55 pm 14:55 Cloudy 46 8 43 6 87 87 SE 9 15 30.01 1016 10 16 N/A
3:15 pm 15:15 Cloudy 46 8 43 6 87 87 SE 9 15 30.00 1016 10 16 N/A
3:35 pm 15:35 Cloudy 48 9 43 6 82 82 SE 9 15 29.98 1015 10 16 N/A
3:55 pm 15:55 Cloudy 48 9 43 6 82 82 SE 10 17 29.97 1015 10 16 N/A
4:15 pm 16:15 Cloudy 48 9 41 5 76 76 SSE 13 20 29.98 1015 10 16 N/A
4:35 pm 16:35 Cloudy 48 9 41 5 76 76 SE 10 17 29.95 1014 10 16 N/A
4:55 pm 16:55 Cloudy 48 9 41 5 76 76 SE 10 17 29.96 1015 10 16 N/A
5:15 pm 17:15 Cloudy 48 9 41 5 76 76 SE 12 19 29.95 1014 10 16 N/A
5:35 pm 17:35 Cloudy 48 9 41 5 76 76 SE 10 17 29.95 1014 10 16 N/A
5:55 pm 17:55 Cloudy 48 9 43 6 82 82 SE 10 17 29.95 1014 10 16 N/A
6:15 pm 18:15 Cloudy 46 8 45 7 93 93 SE 14 22 29.96 1014 10 16 N/A
6:35 pm 18:35 Cloudy 46 8 46 8 100 100 SE 10 17 29.95 1014 7 11 N/A
6:55 pm 18:55 Cloudy 46 8 46 8 100 100 SE 7 11 29.94 1014 10 16 N/A
7:15 pm 19:15 Cloudy 46 8 46 8 100 100 SE 9 15 29.94 1014 10 16 N/A
7:35 pm 19:35 Cloudy 46 8 46 8 100 100 SE 9 15 29.93 1013 7 11 N/A
7:55 pm 19:55 Cloudy 46 8 46 8 100 100 SE 10 17 29.92 1013 7 11 N/A
8:15 pm 20:15 Cloudy 46 8 46 8 100 100 ESE 9 15 29.90 1012 10 16 N/A
8:35 pm 20:35 Cloudy 46 8 46 8 100 100 SE 10 17 29.89 1012 10 16 N/A
8:55 pm 20:55 Cloudy 46 8 46 8 100 100 SE 10 17 29.87 1011 10 16 N/A
9:15 pm 21:15 Cloudy 46 8 46 8 100 100 SE 14 22 29.84 1010 10 16 N/A
9:35 pm 21:35 Cloudy 48 9 46 8 94 94 SSE 13 20 29.85 1011 10 16 N/A
9:55 pm 21:55 Cloudy 46 8 46 8 100 100 SSE 17 28 29.85 1011 5 8 N/A
10:15 pm 22:15 Cloudy 46 8 46 8 100 100 SE 16 26 29.81 1009 7 11 N/A
10:35 pm 22:35 Cloudy 46 8 46 8 100 100 SSE 8 13 29.84 1010 10 16 N/A
10:55 pm 22:55 Cloudy 48 9 48 9 100 100 ESE 7 11 29.80 1009 7 11 N/A
11:15 pm 23:15 Cloudy 48 9 48 9 100 100 ESE 12 19 29.76 1008 10 16 N/A
11:35 pm 23:35 Cloudy 48 9 48 9 100 100 SE 13 20 29.75 1008 10 16 N/A
11:55 pm 23:55 Cloudy 50 10 48 9 94 94 SE 15 24 29.71 1006 10 16 N/A

Powered by AerisWeather